OBJECT AB

基本信息
目录编号:
66691
目录名称:
OBJECT AB
国际标识:
2025-276AB
轨道中心:
EARTH
物体状态:
在轨
发射日期:
2025-11-28 UTC
国别:
(TBD)
轨道信息
数据来源: 国际轨道数据
星历时间: 2026-09-05T12:22:39+0800
半长轴: 6877.714km
偏心率: 0.0006021
轨道倾角: 97.414°
近地点辐角: 83.221°
升交点赤经: 320.722°
平近点角: 276.971°
近地点: 495.435km
远地点: 503.719km
周期: 94.608分钟
每日圈数: 15.220772
详细信息
发射场:
AFWTR
轨道高度:
LEO
数据来源:
AOE Working Group
参考系:
TEME
时间系统:
UTC
历元类型:
SGP4
2D轨道图
3D轨道图
轨道高度分析图
轨道倾角分析图
轨道综合分析图
查看轨道综合分析图